Date String (YYYY-MM-DD hh:mm:ss) UTC,Instrument flags,absolute air pressure of the measurement (hPa),sample flow rate (lpm),inlet stack bypass flow (lpm),air temperature of the measurement (°C),ambient temperature measured by the external sensor (°C),aerosol sample conditioner tube jacket temperature (°C),OPC LED temperature (°C),internal box temperature (°C),relative humidity of the measurement (%),span deviation,mass concentration of particles derived from Lorenz-Mie calculation of OPC scattering (μg/m³),mass concentration of particles derived from Lorenz-Mie calculation of OPC scattering (μg/m³),mass concentration of particles derived from Lorenz-Mie calculation of OPC scattering (μg/m³)
DateTimeUTC,F1_M11,P_M11,Q1_M11,Q2_M11,T1_M11,T2_M11,T3_M11,T4_M11,T5_M11,U1_M11,ZSPAN_M11,X0_M11,X2_M11,X1_M11
2024-03-29 08:00:00,SystemResetWarning,0819.9,5.01,000.00,022.2,021.4,000.0,030.8,024.0,15.1,0000.0,0007.70,0002.98,0001.76
2024-03-29 08:01:00,SystemResetWarning,0820.0,5.00,000.00,022.2,021.4,000.0,030.8,024.0,15.7,0000.0,0007.57,0002.92,0001.74
2024-03-29 08:02:00,SystemResetWarning,0820.0,4.99,000.00,022.2,021.4,000.0,030.8,024.0,16.2,0000.0,0007.94,0002.96,0001.75
2024-03-29 08:03:00,SystemResetWarning,0820.0,4.99,000.00,022.2,021.4,000.0,030.8,024.0,16.0,0000.0,0008.01,0002.99,0001.77
2024-03-29 08:04:00,SystemResetWarning,0820.1,5.00,000.00,022.2,021.4,000.0,030.8,024.0,15.9,0000.0,0008.11,0002.92,0001.76
2024-03-29 08:05:00,SystemResetWarning,0820.2,5.00,000.00,022.2,021.4,000.0,030.8,024.0,16.0,0000.0,0007.96,0002.87,0001.77
2024-03-29 08:06:00,SystemResetWarning,0820.1,5.02,000.00,022.2,021.4,000.0,030.8,024.0,16.1,0000.0,0007.91,0002.86,0001.80
2024-03-29 08:07:00,SystemResetWarning,0820.0,5.00,000.00,022.2,021.3,000.0,030.8,024.0,15.7,0000.0,0007.75,0002.88,0001.84
2024-03-29 08:08:00,SystemResetWarning,0820.1,5.00,000.00,022.2,021.3,000.0,030.8,024.0,15.6,0000.0,0007.67,0002.92,0001.86
2024-03-29 08:09:00,SystemResetWarning,0820.0,4.99,000.00,022.2,021.3,000.0,030.7,024.0,16.1,0000.0,0007.82,0002.98,0001.87
2024-03-29 08:10:00,SystemResetWarning,0820.1,5.00,000.00,022.1,021.3,000.0,030.7,023.9,16.6,0000.0,0008.56,0002.98,0001.90
2024-03-29 08:11:00,SystemResetWarning,0820.1,5.02,000.00,022.1,021.2,000.0,030.7,023.9,16.9,0000.0,0007.69,0003.02,0001.92
2024-03-29 08:12:00,SystemResetWarning,0820.3,5.00,000.00,022.1,021.2,000.0,030.7,023.9,17.0,0000.0,0007.73,0003.10,0001.95
2024-03-29 08:13:00,SystemResetWarning,0820.4,4.99,000.00,022.1,021.2,000.0,030.7,023.9,17.0,0000.0,0007.43,0003.09,0001.97
2024-03-29 08:14:00,SystemResetWarning,0820.1,4.99,000.00,022.1,021.2,000.0,030.7,023.9,16.9,0000.0,0007.37,0003.11,0001.99
2024-03-29 08:15:00,SystemResetWarning,0820.1,5.01,000.00,022.1,021.2,000.0,030.7,023.9,16.9,0000.0,0007.11,0003.15,0002.02
2024-03-29 08:16:00,SystemResetWarning,0820.1,5.02,000.00,022.1,021.2,000.0,030.7,023.9,16.9,0000.0,0007.17,0003.17,0002.04
2024-03-29 08:17:00,SystemResetWarning,0820.1,4.99,000.00,022.1,021.2,000.0,030.7,023.9,17.0,0000.0,0007.19,0003.19,0002.06
2024-03-29 08:18:00,SystemResetWarning,0820.1,4.99,000.00,022.1,021.2,000.0,030.7,023.9,17.0,0000.0,0007.06,0003.20,0002.08
2024-03-29 08:19:00,SystemResetWarning,0820.5,5.00,000.00,022.1,021.1,000.0,030.7,023.9,17.0,0000.0,0006.79,0003.16,0002.09
2024-03-29 08:20:00,SystemResetWarning,0820.2,5.01,000.00,022.0,021.1,000.0,030.7,023.9,17.0,0000.0,0006.65,0003.17,0002.12
2024-03-29 08:21:00,SystemResetWarning,0820.2,5.00,000.00,022.0,021.1,000.0,030.7,023.9,17.0,0000.0,0005.31,0003.18,0002.12
2024-03-29 08:22:00,SystemResetWarning,0820.2,4.98,000.00,022.0,021.1,000.0,030.7,023.9,16.9,0000.0,0005.28,0003.19,0002.13
2024-03-29 08:23:00,SystemResetWarning,0820.1,4.99,000.00,022.0,021.1,000.0,030.7,023.9,16.9,0000.0,0005.35,0003.19,0002.13
2024-03-29 08:24:00,SystemResetWarning,0820.1,5.01,000.00,022.0,021.1,000.0,030.7,023.9,16.8,0000.0,0005.77,0003.18,0002.13
2024-03-29 08:25:00,SystemResetWarning,0820.0,5.00,000.00,022.0,021.1,000.0,030.7,023.9,16.8,0000.0,0007.12,0003.18,0002.11
2024-03-29 08:26:00,SystemResetWarning,0820.0,4.99,000.00,022.0,021.2,000.0,030.6,023.9,16.6,0000.0,0007.18,0003.18,0002.09
2024-03-29 08:27:00,SystemResetWarning,0820.0,5.00,000.00,022.0,021.2,000.0,030.6,023.9,16.5,0000.0,0007.33,0003.20,0002.08
2024-03-29 08:28:00,SystemResetWarning,0820.0,5.02,000.00,022.0,021.2,000.0,030.6,023.9,16.5,0000.0,0008.36,0003.22,0002.07
2024-03-29 08:29:00,SystemResetWarning,0820.1,5.01,000.00,022.0,021.2,000.0,030.6,023.9,16.4,0000.0,0009.13,0003.28,0002.04
2024-03-29 08:30:00,SystemResetWarning,0820.1,4.99,000.00,022.0,021.2,000.0,030.6,023.9,16.2,0000.0,0009.55,0003.29,0002.04
2024-03-29 08:31:00,SystemResetWarning,0820.0,4.99,000.00,022.0,021.2,000.0,030.6,023.9,16.2,0000.0,0009.41,0003.24,0002.02
2024-03-29 08:32:00,SystemResetWarning,0820.0,4.99,000.00,022.0,021.2,000.0,030.6,023.9,16.3,0000.0,0009.51,0003.25,0002.02
2024-03-29 08:33:00,SystemResetWarning,0820.1,5.00,000.00,022.0,021.2,000.0,030.6,023.9,16.2,0000.0,0009.61,0003.27,0002.01
2024-03-29 08:34:00,SystemResetWarning,0820.1,5.00,000.00,022.0,021.2,000.0,030.6,023.8,16.2,0000.0,0009.54,0003.24,0002.00
2024-03-29 08:35:00,SystemResetWarning,0820.1,5.01,000.00,022.0,021.2,000.0,030.6,023.9,16.3,0000.0,0009.53,0003.25,0001.99
2024-03-29 08:36:00,SystemResetWarning,0820.2,5.00,000.00,022.0,021.2,000.0,030.6,023.9,16.4,0000.0,0008.65,0003.26,0001.99
2024-03-29 08:37:00,SystemResetWarning,0820.2,5.00,000.00,022.0,021.2,000.0,030.6,023.8,16.6,0000.0,0008.68,0003.28,0002.01
2024-03-29 08:38:00,SystemResetWarning,0820.3,5.00,000.00,022.0,021.2,000.0,030.6,023.8,16.7,0000.0,0008.72,0003.30,0002.02
2024-03-29 08:39:00,SystemResetWarning,0820.3,5.00,000.00,022.0,021.2,000.0,030.6,023.8,16.8,0000.0,0007.82,0003.24,0002.01
2024-03-29 08:40:00,SystemResetWarning,0820.3,5.00,000.00,022.0,021.2,000.0,030.6,023.9,16.6,0000.0,0006.74,0003.15,0002.02
2024-03-29 08:41:00,SystemResetWarning,0820.4,4.99,000.00,022.0,021.2,000.0,030.6,023.8,16.5,0000.0,0006.13,0003.16,0002.03
2024-03-29 08:42:00,SystemResetWarning,0820.3,5.00,000.00,022.0,021.2,000.0,030.6,023.8,16.6,0000.0,0006.98,0003.20,0002.04
2024-03-29 08:43:00,SystemResetWarning,0820.6,5.00,000.00,022.0,021.2,000.0,030.6,023.8,16.6,0000.0,0006.83,0003.18,0002.04
2024-03-29 08:44:00,SystemResetWarning,0820.6,5.00,000.00,022.0,021.2,000.0,030.6,023.8,16.6,0000.0,0006.51,0003.14,0002.05
2024-03-29 08:45:00,SystemResetWarning,0820.9,5.00,000.00,022.0,021.2,000.0,030.6,023.8,16.7,0000.0,0006.53,0003.14,0002.05
2024-03-29 08:46:00,SystemResetWarning,0821.0,5.01,000.00,022.0,021.2,000.0,030.6,023.8,16.7,0000.0,0006.76,0003.15,0002.05
2024-03-29 08:47:00,SystemResetWarning,0821.0,5.00,000.00,022.0,021.2,000.0,030.6,023.8,16.8,0000.0,0006.65,0003.13,0002.07
2024-03-29 08:48:00,SystemResetWarning,0820.7,5.00,000.00,022.0,021.2,000.0,030.6,023.8,17.0,0000.0,0006.51,0003.12,0002.07
2024-03-29 08:49:00,SystemResetWarning,0820.6,4.99,000.00,021.9,021.2,000.0,030.6,023.8,17.1,0000.0,0006.11,0003.02,0002.07
2024-03-29 08:50:00,SystemResetWarning,0820.6,4.99,000.00,021.9,021.2,000.0,030.6,023.8,17.1,0000.0,0006.24,0003.06,0002.08
2024-03-29 08:51:00,SystemResetWarning,0820.6,5.01,000.00,021.9,021.1,000.0,030.6,023.8,17.3,0000.0,0007.04,0003.13,0002.11
2024-03-29 08:52:00,SystemResetWarning,0820.5,5.01,000.00,021.9,021.1,000.0,030.6,023.8,17.4,0000.0,0007.44,0003.16,0002.15
2024-03-29 08:53:00,SystemResetWarning,0820.6,4.99,000.00,021.9,021.1,000.0,030.5,023.8,17.4,0000.0,0006.83,0003.15,0002.18
2024-03-29 08:54:00,SystemResetWarning,0820.7,4.99,000.00,021.9,021.1,000.0,030.5,023.8,17.4,0000.0,0006.97,0003.17,0002.20
2024-03-29 08:55:00,SystemResetWarning,0820.3,5.00,000.00,021.9,021.0,000.0,030.5,023.7,17.5,0000.0,0007.95,0003.21,0002.23
2024-03-29 08:56:00,SystemResetWarning,0820.2,5.01,000.00,021.9,021.0,000.0,030.5,023.7,17.5,0000.0,0007.98,0003.24,0002.26
2024-03-29 08:57:00,SystemResetWarning,0820.2,5.01,000.00,021.9,021.0,000.0,030.5,023.7,17.5,0000.0,0008.00,0003.28,0002.30
2024-03-29 08:58:00,SystemResetWarning,0820.1,4.99,000.00,021.9,021.0,000.0,030.5,023.7,17.5,0000.0,0008.11,0003.30,0002.32
2024-03-29 08:59:00,SystemResetWarning,0820.1,4.99,000.00,021.9,021.0,000.0,030.5,023.7,17.5,0000.0,0008.16,0003.32,0002.34
